User: anonymous   Login
Location: Unspecified
(0.0000°N, 0.0000°E)
Time: 05:02:13
(UTC+00:00)
Language:

DMSP B5D2-6 - Orbit

View from above orbital plane
View from above orbital plane
View from above satellite
View from above satellite

Ground track
Ground track

The orbit data is extracted from the following two-line orbital elements,

1 21798U 91082A   24109.56586793  .00000384  00000-0  21271-3 0  9993
2 21798  98.7731 140.6131 0013327  22.1187 338.0560 14.16989978673280
Epoch (UTC): 18 April 2024 13:34:50
Eccentricity: 0.0013327
inclination: 98.7731°
perigee height: 826 km
apogee height: 845 km
right ascension of ascending node: 140.6131°
argument of perigee: 22.1187°
revolutions per day: 14.16989978
mean anomaly at epoch: 338.0560°
orbit number at epoch: 67328

The dashed part of the orbit path shows where the satellite is in the earth's shadow,  

DLR